Погода в Саут-Лейк-Тахо

США     38°56′03″N   119°58′36″W
темп.,
°C
ветер,
м/с
пор.,
м/с
влажн.,
%
обл.,
%
осадки,
мм/ч
давл.,
гПа
погр.,
м
15 мая, сб
сб1523:00+10зюз334885 0.0 101128
02:00+8зюз33569 0.0 101236
05:00+6юз11510 0.0 101111
08:00+5ююз22485 0.0 101014
11:00+8зюз234320 0.0 1010510
14:00+12зсз333154 0.0 10081769
17:00+8ю325988 0.5 1011521
20:00+8ююз2266100 1.2 1009397
16 мая, вс
вс1623:00+5ю5584100 2.7 1012164
02:00+4юз3393100 6.1 1012264
05:00+4юз2293100 4.0 1012183
08:00+5ю3393100 5.3 101195
11:00+4ю2293100 3.6 1013142
14:00+5ююв1192100 4.9 1014171
17:00+8ююз027618 0.1 1013564
20:00+11з45563 0.2 1010759
17 мая, пн
пн1723:00+8з33829 1.4 101336
02:00+7ююв229283 2.4 101565
05:00+6зюз22895 1.8 101516
08:00+6зюз22863 1.8 101617
11:00+9зюз11720 0.0 1015112
14:00+12ссз12500 0.0 1015950
17:00+16з653937 0.0 10121523
20:00+14з89455 0.0 1013799
18 мая, вт
вт1823:00+10зюз3259100 0.0 101523
02:00+8зюз326494 0.0 101621
05:00+7зюз226195 0.0 101617
08:00+7зюз2263100 0.0 101617
11:00+9зюз12555 0.0 1015243
14:00+13з44350 0.0 10141106
17:00+15з77330 0.0 10121133
20:00+13зюз79360 0.0 1012743
19 мая, ср
ср1923:00+9зюз33600 0.0 101338
02:00+6юз337215 0.0 101536
05:00+6юз3360100 0.0 101429
08:00+5юз33523 0.0 101337
11:00+8юз37460 0.0 1011517
14:00+11юз9124498 0.0 1009986
17:00+10зюз111448100 0.0 10081002
20:00+7зюз11156368 0.0 1008960